| time (UTC) | temp F | wind direction | speed knots | gust knots | rain 1hr in | rain 24hr in | rain mn in | humidity % | barometer mb |
| 20260504214551 | 76 | 283 | 4.3 | 13.0 | 0.00 | 0.00 | 0.00 | 42 | 1011.8 |
| 20260504213049 | 77 | 274 | 4.3 | 9.6 | 0.00 | 0.00 | 0.00 | 41 | 1011.7 |
| 20260504211541 | 76 | 277 | 6.1 | 11.3 | 0.00 | 0.00 | 0.00 | 43 | 1011.8 |
| 20260504210038 | 76 | 269 | 3.5 | 8.7 | 0.00 | 0.00 | 0.00 | 44 | 1012.0 |
| 20260504204536 | 76 | 277 | 2.6 | 10.4 | 0.00 | 0.00 | 0.00 | 44 | 1012.2 |
| 20260504203034 | 76 | 278 | 5.2 | 10.4 | 0.00 | 0.00 | 0.00 | 43 | 1012.2 |
| 20260504201532 | 76 | 267 | 1.7 | 7.8 | 0.00 | 0.00 | 0.00 | 48 | 1012.4 |
| 20260504200039 | 75 | 248 | 3.5 | 10.4 | 0.00 | 0.00 | 0.00 | 47 | 1012.7 |
| 20260504194527 | 75 | 235 | 2.6 | 7.8 | 0.00 | 0.00 | 0.00 | 49 | 1012.8 |
| 20260504193023 | 75 | 215 | 2.6 | 8.7 | 0.00 | 0.00 | 0.00 | 48 | 1012.9 |
| 20260504191535 | 75 | 260 | 2.6 | 10.4 | 0.00 | 0.00 | 0.00 | 48 | 1013.5 |
| 20260504190018 | 75 | 265 | 3.5 | 9.6 | 0.00 | 0.00 | 0.00 | 50 | 1013.5 |
| 20260504184516 | 75 | 286 | 7.0 | 11.3 | 0.00 | 0.00 | 0.00 | 49 | 1013.7 |
| 20260504183032 | 74 | 296 | 4.3 | 8.7 | 0.00 | 0.00 | 0.00 | 48 | 1013.8 |
| 20260504181522 | 74 | 282 | 4.3 | 9.6 | 0.00 | 0.00 | 0.00 | 48 | 1014.1 |
| 20260504180010 | 74 | 286 | 4.3 | 8.7 | 0.00 | 0.00 | 0.00 | 51 | 1014.3 |
| 20260504174508 | 73 | 277 | 4.3 | 9.6 | 0.00 | 0.00 | 0.00 | 48 | 1014.4 |
| 20260504173005 | 73 | 192 | 3.5 | 12.2 | 0.00 | 0.00 | 0.00 | 51 | 1014.6 |
| 20260504171503 | 72 | 298 | 1.7 | 8.7 | 0.00 | 0.00 | 0.00 | 48 | 1014.8 |
| 20260504170109 | 72 | 172 | 4.3 | 9.6 | 0.00 | 0.00 | 0.00 | 49 | 1015.1 |
| 20260504120104 | 45 | 188 | 0.0 | 0.0 | 0.00 | 0.00 | 0.00 | 87 | 1017.1 |
| 20260504081536 | 48 | 188 | 0.0 | 0.9 | 0.00 | 0.00 | 0.00 | 76 | 1017.1 |
| 20260504050016 | 49 | 188 | 0.0 | 0.9 | 0.00 | 0.00 | 0.00 | 73 | 1017.4 |
| 20260504044521 | 49 | 188 | 0.0 | 1.7 | 0.00 | 0.00 | 0.00 | 74 | 1017.4 |
| 20260504043012 | 50 | 188 | 0.0 | 2.6 | 0.00 | 0.00 | 0.00 | 74 | 1017.4 |
| 20260504041508 | 51 | 188 | 0.0 | 0.9 | 0.00 | 0.00 | 0.00 | 69 | 1017.5 |
| 20260504040004 | 52 | 188 | 0.0 | 2.6 | 0.00 | 0.00 | 0.00 | 68 | 1017.2 |
| 20260504034503 | 51 | 187 | 0.9 | 2.6 | 0.00 | 0.00 | 0.00 | 70 | 1017.0 |
| 20260504033002 | 52 | 185 | 0.0 | 0.0 | 0.00 | 0.00 | 0.00 | 69 | 1016.9 |
| 20260504031502 | 52 | 185 | 0.0 | 1.7 | 0.00 | 0.00 | 0.00 | 68 | 1016.9 |
| 20260504030004 | 52 | 185 | 0.0 | 1.7 | 0.00 | 0.00 | 0.00 | 70 | 1016.6 |
| 20260504024505 | 52 | 184 | 0.0 | 1.7 | 0.00 | 0.00 | 0.00 | 69 | 1016.5 |
| 20260504023106 | 52 | 184 | 0.0 | 1.7 | 0.00 | 0.00 | 0.00 | 70 | 1016.5 |
| 20260504023001 | 52 | 184 | 0.0 | 1.7 | 0.00 | 0.00 | 0.00 | 70 | 1016.5 |
| 20260504021600 | 53 | 184 | 0.0 | 0.0 | 0.00 | 0.00 | 0.00 | 70 | 1016.3 |
| 20260504014600 | 54 | 184 | 0.0 | 0.0 | 0.00 | 0.00 | 0.00 | 66 | 1016.2 |
| 20260504013111 | 55 | 184 | 0.0 | 0.0 | 0.00 | 0.00 | 0.00 | 65 | 1016.3 |
| 20260504011557 | 56 | 184 | 0.0 | 0.0 | 0.00 | 0.00 | 0.00 | 63 | 1016.0 |
| 20260504010112 | 57 | 184 | 0.0 | 0.9 | 0.00 | 0.00 | 0.00 | 61 | 1016.1 |
| 20260504004625 | 59 | 186 | 0.9 | 1.7 | 0.00 | 0.00 | 0.00 | 59 | 1016.0 |
| 20260504003056 | 60 | 186 | 0.0 | 2.6 | 0.00 | 0.00 | 0.00 | 57 | 1015.8 |
| 20260504001606 | 62 | 186 | 0.0 | 0.9 | 0.00 | 0.00 | 0.00 | 53 | 1016.0 |
| 20260504000055 | 64 | 186 | 0.0 | 1.7 | 0.00 | 0.00 | 0.00 | 49 | 1016.0 |
| 20260503234552 | 65 | 187 | 0.0 | 2.6 | 0.00 | 0.00 | 0.00 | 44 | 1016.1 |
| 20260503233052 | 66 | 180 | 0.0 | 1.7 | 0.00 | 0.00 | 0.00 | 43 | 1016.2 |
| 20260503231650 | 66 | 185 | 1.7 | 5.2 | 0.00 | 0.00 | 0.00 | 42 | 1016.2 |
| 20260503230057 | 67 | 235 | 0.9 | 3.5 | 0.00 | 0.00 | 0.00 | 41 | 1016.4 |
| 20260503224547 | 66 | 244 | 1.7 | 6.1 | 0.00 | 0.00 | 0.00 | 38 | 1016.6 |
| 20260503223051 | 66 | 239 | 3.5 | 7.0 | 0.00 | 0.00 | 0.00 | 39 | 1016.7 |
| 20260503221545 | 66 | 285 | 1.7 | 9.6 | 0.00 | 0.00 | 0.00 | 40 | 1016.8 |
| 20260503220043 | 66 | 217 | 0.0 | 7.0 | 0.00 | 0.00 | 0.00 | 41 | 1016.8 |